Regional Weather Roundup
Issued by NWS

Home | Current Version | Previous Version | Graphics & Text | Print | Product List | Glossary On
Versions: 1 2 3 4 5 6 7 8 9 10 11 12 13 14 15 16 17 18 19 20 21 22 23 24 25 26 27 28 29 30 31 32 33 34 35 36 37 38 39 40 41 42 43 44 45 46 47 48 49 50
000
ASUS43 KLSX 300959
RWRMO

WEATHER SUMMARY FOR MISSOURI
NATIONAL WEATHER SERVICE SPRINGFIELD MO
400 AM CST FRI JAN 30 2015

NOTE: "FAIR" INDICATES FEW OR NO CLOUDS BELOW 12,000 FEET WITH NO
       SIGNIFICANT WEATHER AND/OR OBSTRUCTIONS TO VISIBILITY.
       CURRENT SKY AND/OR WEATHER CONDITIONS ARE NOT AVAILABLE FOR
       CHILLICOTHE AND FARMINGTON.

MOZ001>031-035>038-043-044-053-054-301100-
...NORTHERN AND WESTERN MISSOURI...

CITY           SKY/WX    TMP DP  RH WIND       PRES   REMARKS
KANSAS CTY INT CLEAR     23  20  88 N8        30.54R WCI  14
KANSAS C DTWN  CLEAR     26  21  81 N3        30.55R
LEE`S SUMMIT   CLEAR     25  20  81 N3        30.53S
ST JOSEPH      FOG       14  14 100 CALM      30.56S VSB 1/2
CHILLICOTHE      N/A     26  20  77 N3        30.55R
KIRKSVILLE     MOCLDY    23  20  88 N9        30.52R WCI  13

$$
MOZ066>068-077>081-088>096-101>105-301100-
...SOUTHWEST MISSOURI...

CITY           SKY/WX    TMP DP  RH WIND       PRES   REMARKS
SPRINGFIELD    CLEAR     23  20  88 N8        30.48F WCI  14
JOPLIN         CLEAR     26  23  88 N5        30.51F WCI  20

$$
MOZ032>034-039>042-045>050-055>058-069>072-301100-
...CENTRAL MISSOURI...

CITY           SKY/WX    TMP DP  RH WIND       PRES   REMARKS
COLUMBIA       CLEAR     25  20  81 NW7       30.50R WCI  17
JEFFERSON CITY CLEAR     27  20  75 NW3       30.52S
ROLLA          CLEAR     26  20  77 NW9       30.45S WCI  17
SEDALIA        CLEAR     27  21  78 NW8       30.52S WCI  19
OSAGE BEACH    CLEAR     27  19  74 NW3       30.50S

$$
MOZ051-052-059>065-301100-
...EAST CENTRAL MISSOURI...

CITY           SKY/WX    TMP DP  RH WIND       PRES   REMARKS
ST LOUIS INTL  MOCLDY    31  20  63 NW9       30.48S WCI  23
SPIRIT OF STL  MOCLDY    28  20  71 NW5       30.48S WCI  23
ST CHARLES     CLOUDY    30  21  69 N13       30.48S WCI  20

$$
MOZ072>076-082>087-097>100-106>115-301100-
...SOUTH CENTRAL AND SOUTHEAST MISSOURI...

CITY           SKY/WX    TMP DP  RH WIND       PRES   REMARKS
CAPE GIRARDEAU CLOUDY    36  26  67 N7        30.45F
FARMINGTON     PTCLDY    28  19  69 NW8       30.47S WCI  20
POPLAR BLUFF   CLEAR     30  23  75 CALM      30.45S
WEST PLAINS    CLEAR     28  22  78 N5        30.45F WCI  23

$$



USA.gov is the U.S. government's official web portal to all federal, state and local government web resources and services.